Lid_Strength_Index
-1 -1 -1 -1 -1 -1 -1 -0 0 0 0 1 1 2 2 2 2 6 7 3 1 -2 -0 4 5 5 7 7 7 9 13 15 13 12 11 9 10 9 8 7 8 7 6 5 3
-1 -1 -1 -1 -1 -1 -1 -0 0 0 1 1 2 2 2 3 5 8 3 0 -1 -1 5 6 7 6 9 9 8 12 14 13 11 10 11 10 10 9 8 8 8 7 5 3 3
-1 -1 -1 -1 -1 -1 -1 -1 -1 0 1 2 3 3 3 3 9 11 1 1 -0 -0 2 5 6 7 11 10 10 11 13 12 9 8 8 10 10 10 9 10 7 7 6 4 5
-1 -1 -1 -1 -1 -1 -1 -1 -1 -1 0 2 2 3 3 5 16 5 0 1 0 1 3 6 8 10 12 12 10 12 10 9 7 7 8 9 9 10 10 9 7 5 4 5 5
-1 -1 -1 -1 -1 -1 -1 -1 -1 -2 -2 -0 0 2 5 10 11 4 2 2 4 3 6 9 10 10 13 12 11 12 11 8 8 7 8 7 10 10 9 9 8 5 5 6 6
-0 -0 -1 -1 -1 -1 -1 -1 -1 -2 -2 -2 -1 0 5 13 5 5 5 4 3 5 7 8 10 9 11 12 12 10 10 10 8 9 9 9 10 10 10 9 8 7 7 7 7
-0 -0 -1 -1 -1 -1 -1 -1 -1 -1 -0 -1 -1 2 6 8 3 4 4 5 4 4 7 8 6 10 11 11 9 10 13 12 10 10 10 10 11 11 9 9 9 9 8 7 6
0 0 -0 -0 -1 -1 -1 -1 -1 -0 0 0 1 4 10 5 4 3 3 4 3 2 3 3 4 8 10 10 11 13 14 16 13 10 10 11 13 12 11 12 10 9 9 8 8
0 0 0 -0 -0 -1 -1 -1 -1 -1 -0 0 5 8 10 3 7 4 4 5 2 2 3 3 4 7 7 12 15 15 18 16 14 11 12 13 15 12 10 10 11 11 9 9 9
0 0 0 -0 -0 -1 -0 -1 -1 -1 1 2 4 8 7 7 6 6 6 5 4 4 5 6 9 11 11 14 18 16 18 16 16 13 12 14 13 12 10 10 10 10 11 10 9
0 0 0 -0 -0 -1 -0 1 4 6 4 7 8 9 7 5 4 5 5 4 4 7 10 8 11 13 11 12 14 15 15 18 15 12 12 13 13 12 10 11 11 10 10 10 10
1 0 0 0 -1 -0 0 4 4 4 8 6 6 7 6 4 8 7 5 7 8 11 9 11 14 11 10 12 12 13 15 16 14 12 11 13 13 12 11 11 10 9 10 9 10
1 1 -0 1 1 0 3 3 2 3 8 7 6 6 6 6 9 9 6 8 10 12 12 13 12 10 11 12 13 14 15 15 16 13 13 14 16 15 13 11 10 9 9 10 9
1 1 0 0 3 2 4 1 2 3 12 11 8 6 6 7 10 7 6 8 10 12 11 12 10 11 12 13 12 15 12 13 13 16 18 14 21 15 13 13 11 10 10 10 10
-0 1 1 0 4 4 2 2 2 4 20 11 9 4 6 9 9 9 6 9 12 11 11 13 11 12 13 12 11 13 11 12 14 16 18 18 18 18 14 14 12 11 11 11 11
-1 0 1 2 3 2 1 2 4 13 19 13 9 9 9 9 9 8 8 8 9 11 13 12 9 10 11 10 10 10 12 12 14 16 22 17 18 21 17 13 13 11 11 11 11
-1 -1 2 2 5 2 2 4 14 18 12 13 12 10 10 11 10 10 10 11 13 15 16 14 13 11 9 11 11 11 14 21 21 19 22 18 18 18 14 12 11 11 11 11 12
-1 -1 2 3 2 2 3 10 18 14 16 11 11 10 12 11 11 10 11 13 12 14 16 16 18 12 10 11 13 13 14 19 23 22 21 17 19 16 13 11 10 10 11 11 12
-1 1 3 3 2 3 7 15 15 13 13 12 11 13 13 11 12 11 12 12 12 12 17 18 17 13 11 10 10 13 15 13 17 22 21 19 17 14 12 12 11 11 11 12 12
3 3 5 4 2 5 12 13 12 11 10 10 14 12 15 13 13 13 13 11 12 11 12 14 17 14 12 10 11 12 10 16 18 24 25 20 19 17 16 14 12 12 12 11 12
4 7 4 2 3 8 14 12 11 11 9 12 14 13 13 13 13 13 13 12 10 11 10 13 15 14 12 13 13 12 14 13 15 17 21 22 19 15 13 14 13 12 12 12 12
4 10 3 1 10 12 12 13 9 11 11 12 12 13 13 12 13 13 13 12 9 9 12 12 14 16 14 13 11 11 13 13 17 18 18 18 18 13 12 12 11 11 11 11 11
8 7 2 3 12 12 12 11 10 10 12 12 13 12 11 12 14 12 12 10 9 10 11 11 15 19 16 13 13 12 12 12 14 15 17 19 19 13 13 12 11 11 11 10 10
7 10 7 6 7 11 12 12 12 8 11 12 12 11 12 12 13 12 12 11 9 9 8 9 13 17 19 17 14 15 13 12 12 17 16 17 17 15 14 13 12 11 11 12 12
8 10 9 11 11 10 10 11 12 13 10 11 12 12 13 13 14 15 13 12 10 8 9 10 14 15 15 14 15 14 13 13 14 14 16 15 15 13 12 11 11 10 11 12 12
9 10 9 9 8 10 10 11 12 12 13 13 13 12 12 13 13 14 12 12 12 11 10 9 14 13 16 14 16 16 15 14 14 13 14 14 14 11 10 10 10 10 11 12 12
6 5 7 9 10 11 12 11 11 11 12 11 11 11 13 11 10 9 10 10 10 10 11 11 14 15 18 16 16 19 18 15 15 13 12 15 12 10 11 11 11 12 12 12 12